TimeEDT,TemperatureF,Dew PointF,Humidity,Sea Level PressureIn,VisibilityMPH,Wind Direction,Wind SpeedMPH,Gust SpeedMPH,PrecipitationIn,Events,Conditions,WindDirDegrees,DateUTC
12:16 AM,69.8,64.4,83,29.99,10.0,North,6.9,-,0.00,Rain,Light Rain,360,2013-08-29 04:16:00
12:53 AM,66.9,64.0,90,30.00,10.0,NW,3.5,-,0.03,Rain-Thunderstorm,Light Rain,320,2013-08-29 04:53:00
1:26 AM,66.2,64.4,94,29.96,8.0,West,3.5,-,0.03,Rain,Light Rain,280,2013-08-29 05:26:00
1:53 AM,66.0,64.0,93,29.98,9.0,Calm,Calm,-,0.07,Rain,Light Rain,0,2013-08-29 05:53:00
2:53 AM,66.0,64.9,96,29.99,10.0,East,3.5,-,0.03,Rain,Light Rain,80,2013-08-29 06:53:00
3:53 AM,66.9,64.9,93,30.00,7.0,NNE,4.6,-,0.00,,Overcast,20,2013-08-29 07:53:00
4:53 AM,66.9,64.9,93,30.02,10.0,ENE,4.6,-,N/A,,Overcast,60,2013-08-29 08:53:00
5:53 AM,66.9,64.9,93,30.04,10.0,NE,6.9,-,N/A,,Overcast,50,2013-08-29 09:53:00
6:35 AM,66.2,64.4,94,30.02,10.0,NNE,5.8,-,N/A,,Overcast,30,2013-08-29 10:35:00
6:53 AM,66.9,64.0,90,30.05,10.0,NE,6.9,-,N/A,,Overcast,50,2013-08-29 10:53:00
6:57 AM,66.2,64.4,94,30.02,10.0,NE,5.8,-,N/A,,Overcast,50,2013-08-29 10:57:00
7:53 AM,66.9,64.0,90,30.08,8.0,ENE,6.9,-,N/A,,Overcast,60,2013-08-29 11:53:00
8:36 AM,66.2,64.4,94,30.05,9.0,NE,9.2,-,N/A,,Overcast,50,2013-08-29 12:36:00
8:53 AM,66.0,63.0,90,30.09,6.0,NE,10.4,-,N/A,,Overcast,50,2013-08-29 12:53:00
9:53 AM,64.9,61.0,87,30.11,6.0,NE,6.9,-,N/A,,Overcast,50,2013-08-29 13:53:00
10:53 AM,64.9,61.0,87,30.11,7.0,NE,9.2,-,N/A,,Overcast,50,2013-08-29 14:53:00
11:34 AM,66.2,60.8,83,30.08,7.0,East,10.4,-,N/A,,Overcast,90,2013-08-29 15:34:00
11:53 AM,64.9,60.1,84,30.12,7.0,ENE,6.9,-,N/A,,Overcast,70,2013-08-29 15:53:00
12:53 PM,64.9,60.1,84,30.11,7.0,East,9.2,-,N/A,,Overcast,90,2013-08-29 16:53:00
1:53 PM,64.9,60.1,84,30.11,10.0,East,8.1,-,N/A,,Overcast,90,2013-08-29 17:53:00
2:53 PM,64.0,60.1,87,30.10,10.0,East,6.9,-,N/A,,Overcast,90,2013-08-29 18:53:00
3:53 PM,64.9,59.0,81,30.10,10.0,NE,5.8,-,N/A,,Overcast,50,2013-08-29 19:53:00
4:53 PM,64.0,59.0,84,30.10,10.0,East,5.8,-,N/A,,Overcast,80,2013-08-29 20:53:00
5:29 PM,64.4,59.0,83,30.06,10.0,Calm,Calm,-,N/A,,Overcast,0,2013-08-29 21:29:00
5:53 PM,64.9,59.0,81,30.09,10.0,ESE,3.5,-,N/A,,Overcast,120,2013-08-29 21:53:00
6:53 PM,64.9,57.9,78,30.09,10.0,SE,5.8,-,N/A,,Overcast,130,2013-08-29 22:53:00
7:53 PM,64.0,59.0,84,30.09,10.0,Calm,Calm,-,N/A,,Overcast,0,2013-08-29 23:53:00
8:53 PM,63.0,57.9,84,30.10,10.0,Calm,Calm,-,N/A,,Overcast,0,2013-08-30 00:53:00
9:53 PM,63.0,57.9,84,30.10,10.0,Calm,Calm,-,N/A,,Overcast,0,2013-08-30 01:53:00
10:17 PM,62.6,57.2,82,30.05,10.0,South,4.6,-,N/A,,Overcast,180,2013-08-30 02:17:00
10:53 PM,63.0,57.9,84,30.08,10.0,South,3.5,-,N/A,,Overcast,180,2013-08-30 02:53:00
11:36 PM,62.6,59.0,88,30.02,10.0,South,3.5,-,N/A,,Overcast,190,2013-08-30 03:36:00
11:53 PM,63.0,59.0,87,30.06,10.0,Calm,Calm,-,N/A,,Overcast,0,2013-08-30 03:53:00